Voltar ao catálogo

FENGYUN 1C DEB

AtivoSSO
NORAD 30157·DEBRIS·🇨🇳 China

Lançado May 10, 1999 de Taiyuan Satellite Launch Center

Loading…

Próximas Passagens (próximas 24 horas)

TLE

AtualizadoSource: Space-Track

Época: Sep 14, 2026, 06:03 UTC

1 30157U 99025TN  26257.25222405  .00004277  00000-0  11449-2 0  9996
2 30157  98.7204   7.3112 0035115  87.7403 302.7491 14.48428125 20520

Acompanhe FENGYUN 1C DEB em tempo real com AllMySat

Download on the App Store